Погода в Каменномосте

Россия / Карачаево-Черкесская Республика     43˚44′52″N   41˚54′41″E
темп.,
°C
ветер,
м/с
пор.,
м/с
влажн.,
%
обл.,
%
осадки,
мм/ч
давл.,
гПа
погр.,
м
16 января, сб
сб1600:00−6˚в119699 0.2 101499
03:00−7˚ююв119099 0.3 101665
06:00−8˚вюв118425 0.0 101721
09:00−6˚юв116713 0.0 101865
12:00−1˚ссз22531 0.0 1017502
15:00−2˚с227250 0.0 1015392
18:00−6˚всв1193100 0.0 101524
21:00−6˚вюв1185100 0.0 101325
17 января, вс
вс1700:00−5˚вюв1181100 0.0 101121
03:00−4˚юв1172100 0.0 100721
06:00−3˚юв1181100 0.0 100522
09:00юв2278100 0.0 100358
12:00+6˚юв1363100 0.0 1002303
15:00+4˚зсз127299 0.0 100179
18:00−1˚юв2286100 0.0 100122
21:00−1˚ююв118090 0.0 100123
18 января, пн
пн1800:00−2˚зсз0187100 0.0 100221
03:00−3˚зсз2397100 1.9 1005110
06:00−3˚зсз1298100 4.4 1008136
09:00−4˚с2395100 5.1 1012221
12:00−5˚ссз2385100 0.3 1014324
15:00−7˚ссз249198 0.8 1015414
18:00−9˚ю0196100 0.4 101842
21:00−10˚всв1188100 0.4 101921
19 января, вт
вт1900:00−11˚с119093 0.0 102031
03:00−11˚ссв118988 0.1 102028
06:00−13˚з1190100 0.1 102024
09:00−9˚вюв238590 0.5 1021140
12:00−5˚ссз33630 0.0 1019680
15:00−7˚с22768 0.1 1019408
18:00−12˚ююв018934 0.1 102122
21:00−13˚ююв227417 0.1 102324
20 января, ср
ср2000:00−14˚вюв11768 0.0 102423
03:00−14˚вюв127626 0.0 102522
06:00−14˚вюв117593 0.0 102620
09:00−12˚всв117196 0.0 102647
12:00−8˚ссз226899 0.0 1026382
15:00−9˚ссз238275 0.0 1026411
18:00−14˚ссв019772 0.1 102920
21:00−15˚вюв119358 0.1 103120